Miscellaneous Local Product
Issued by NWS Hastings, NE

Home | Current Version | Previous Version | Graphics & Text | Print | Product List | Glossary On
Versions: 1 2 3 4 5 6 7 8 9 10 11 12 13 14 15 16 17 18 19 20 21 22 23 24 25 26 27 28 29 30 31 32 33 34 35 36 37 38 39 40 41 42 43 44 45 46 47 48 49 50
000
AXUS43 KGID 220102
MISGRI

GID CWA HOURLY WEATHER ROUNDUP
NATIONAL WEATHER SERVICE HASTINGS NE
800 PM CDT SUN MAY 21 2017

NOTE: "FAIR" INDICATES FEW OR NO CLOUDS BELOW 12,000 FEET WITH NO
SIGNIFICANT WEATHER AND/OR OBSTRUCTIONS TO VISIBILITY.

...SOUTH CENTRAL NEBRASKA...

CITY           SKY/WX    TMP DP  RH WIND       PRES   REMARKS
GRAND ISLAND   CLEAR     66  43  43 NW6       30.06S
HASTINGS       CLEAR     68  41  37 CALM      30.07S
KEARNEY        CLEAR     70  39  32 NW3       30.06F
ORD            CLEAR     64  39  39 W6        30.03S
YORK           CLEAR     66  41  39 NW6       30.06S
AURORA         CLEAR     66  42  40 NW3       30.06S
LEXINGTON      PTCLDY    63  45  52 W7        30.06S
HOLDREGE       CLEAR     67  39  35 CALM      30.07S
HEBRON         CLEAR     68  44  41 CALM      30.08R

...NEBRASKA PANHANDLE...

CITY           SKY/WX    TMP DP  RH WIND       PRES   REMARKS
CHADRON        SUNNY     56  44  64 N12       30.12R
ALLIANCE       LGT RAIN  51  46  83 NW7G36    30.11R
SCOTTSBLUFF    LGT RAIN  55  32  41 NW9       30.15F
SIDNEY         PTSUNNY   53  47  79 S7        30.17S

...WESTERN AND NORTH CENTRAL NEBRASKA...

CITY           SKY/WX    TMP DP  RH WIND       PRES   REMARKS
VALENTINE      CLOUDY    65  37  35 W17       30.03R
AINSWORTH      CLEAR     62  42  47 W5        30.03S
ONEILL         CLEAR     64  38  38 CALM      30.03S
BROKEN BOW     CLEAR     67  43  41 CALM      30.05S
IMPERIAL       SUNNY     59  45  59 N10       30.11R
NORTH PLATTE   CLEAR     61  49  64 W6        30.08S
MCCOOK         CLEAR     71  39  31 CALM      30.07S

...EASTERN NEBRASKA...

CITY           SKY/WX    TMP DP  RH WIND       PRES   REMARKS
NORFOLK        CLEAR     64  37  36 NW5       30.03S
SO SIOUX CITY  CLEAR     61  47  59 NW5       30.04R
TEKAMAH        CLEAR     62  46  55 NW3       30.04S
COLUMBUS       CLEAR     64  41  42 CALM      30.05S
ALBION         CLEAR     65  43  45 CALM      30.04S
OMAHA EPPLEY   CLEAR     63  45  51 N6        30.06R
MILLARD        CLEAR     67  41  39 NW6       30.06S
LINCOLN        CLEAR     68  39  34 NW3       30.07R
NEBRASKA CITY  CLEAR     64  39  39 W3        30.08S
BEATRICE       CLEAR     68  45  43 CALM      30.08R
FALLS CITY     CLEAR     63  44  50 NW6       30.09R

...NORTHERN KANSAS...

CITY           SKY/WX    TMP DP  RH WIND       PRES   REMARKS
GOODLAND       CLEAR     64  48  56 SE7       30.10S
HILL CITY      LGT RAIN  61  54  77 N12       30.10R
NORTON         CLEAR     64  46  52 N5        30.07S
PHILLIPSBURG   CLEAR     70  46  43 NW6       30.07S
SMITH CENTER   CLEAR     68  46  45 CALM      30.08R
HAYS           MOCLDY    68  51  54 S9        30.08S
RUSSELL        CLOUDY    68  52  56 S13       30.07S
CONCORDIA      CLOUDY    66  52  60 S3        30.08R
SALINA         PTCLDY    71  49  45 SE6       30.09S
TOPEKA         CLEAR     70  44  39 CALM      30.11R



USA.gov is the U.S. government's official web portal to all federal, state and local government web resources and services.